Location: Washington
(38.8950°N, 77.0370°W)
Time: 17:58:32
(UTC-05:00)

Amateur Radio Satellites - All Passes

Search period start: 11 December 2017 17:28
Search period end: 12 December 2017 17:28
Location: Washington, 38.8950°N, 77.0370°W

Satellite Date Start Highest point End Downlink Frequencies (MHz)
Time Altitude Azimuth
XW-2F 11 Dec 17:36:38 17:40:22 77° 256° (WSW) 17:44:11 145.980 - 146.000
KKS-1 11 Dec 17:36:51 17:41:18 85° 284° (WNW) 17:45:43 437.445
SO-50 11 Dec 17:37:08 17:40:22 19° 315° (NW) 17:43:40 436.795
DOVE 4 11 Dec 17:47:19 17:50:06 14° 270° (W) 17:52:53 437.250
CUTE-I 11 Dec 17:47:46 17:53:07 78° 256° (WSW) 17:58:32 437.470
XW-2C 11 Dec 17:48:37 17:52:15 48° 261° (W) 17:55:57 145.795 - 145.815
nSIGHT-1 11 Dec 17:56:16 17:58:38 19° 24° (NNE) 18:01:01 .
HO-68 11 Dec 18:13:18 18:20:29 80° 72° (ENE) 18:27:42 435.675
SEEDS 11 Dec 18:20:42 18:24:44 47° 73° (ENE) 18:28:49 437.485
LilacSat-2 11 Dec 18:21:41 18:24:20 18° 266° (W) 18:27:00 437.200
ISS 11 Dec 18:25:00 18:27:45 24° 27° (NNE) 18:30:29 437.550
STARS 11 Dec 18:30:10 18:34:26 55° 287° (WNW) 18:38:41 437.465
AO-73 11 Dec 18:30:25 18:32:39 14° 66° (ENE) 18:34:54 145.935
PCSat 11 Dec 18:35:04 18:39:43 31° 109° (ESE) 18:44:25 145.827
CUTE 1.7 + AOD 2 11 Dec 18:36:31 18:40:42 64° 259° (W) 18:44:57 437.475
O/OREOS (USA 219) 11 Dec 18:36:58 18:41:19 45° 65° (ENE) 18:45:36 437.305
XW-2D 11 Dec 18:42:48 18:43:45 11° 269° (W) 18:44:42 145.860 - 145.880
STRAND 1 11 Dec 18:46:44 18:50:47 24° 95° (E) 18:54:50 437.568
CUBEBUG 2 11 Dec 18:48:01 18:52:17 83° 257° (WSW) 18:56:29 437.445
AAUSAT CUBESAT 2 11 Dec 18:50:33 18:54:30 43° 73° (ENE) 18:58:29 437.432
UWE-3 11 Dec 18:55:12 18:59:20 63° 75° (ENE) 19:03:26 435.000/436.395/437.385
XW-2A 11 Dec 18:55:59 18:59:11 49° 75° (ENE) 19:02:27 145.665 - 145.685
RS-15 11 Dec 19:18:23 19:26:43 20° 347° (NNW) 19:34:54 29.354- 29.394
ZACube-1 11 Dec 19:28:09 19:32:17 78° 77° (ENE) 19:36:26 437.345
nSIGHT-1 11 Dec 19:31:55 19:35:07 63° 220° (SW) 19:38:16 .
FO-29 11 Dec 19:39:41 19:45:27 27° 91° (E) 19:50:39 435.910
Oscar 11 11 Dec 19:53:42 19:58:00 87° 75° (ENE) 20:02:21 .
SEEDS 11 Dec 19:58:40 20:00:39 13° 269° (W) 20:02:39 437.485
ISS 11 Dec 20:01:12 20:04:20 41° 224° (SW) 20:07:25 437.550
HO-68 11 Dec 20:04:26 20:08:54 17° 269° (W) 20:13:22 435.675
AO-73 11 Dec 20:04:34 20:08:30 43° 261° (W) 20:12:27 145.935
O/OREOS (USA 219) 11 Dec 20:17:41 20:20:16 15° 261° (W) 20:22:50 437.305
PCSat 11 Dec 20:18:02 20:23:00 36° 306° (NW) 20:27:59 145.827
EO-88 11 Dec 20:22:27 20:24:19 14° 67° (ENE) 20:26:11 145.990 - 145.960
DELFI C3 11 Dec 20:25:09 20:28:48 35° 72° (ENE) 20:32:27 145.870
STRAND 1 11 Dec 20:25:22 20:30:02 38° 290° (WNW) 20:34:42 437.568
AAUSAT CUBESAT 2 11 Dec 20:27:56 20:30:08 14° 268° (W) 20:32:21 437.432
BEESAT 3 11 Dec 20:59:40 21:03:39 83° 301° (WNW) 21:07:40 437.485
Max Valier Satellite 11 Dec 21:17:53 21:21:30 73° 259° (WSW) 21:25:10 145.860
FO-29 11 Dec 21:24:02 21:30:47 49° 292° (WNW) 21:36:46 435.910
BEESAT 2 11 Dec 21:31:19 21:35:14 56° 117° (ESE) 21:39:12 435.950
ESTCUBE 1 11 Dec 21:32:05 21:33:53 12° 63° (ENE) 21:35:40 437.505/2401.250
RS-15 11 Dec 21:36:10 21:45:23 24° 24° (NNE) 21:54:15 29.354- 29.394
TIGRISAT 11 Dec 21:53:07 21:57:25 66° 102° (ESE) 22:01:47 435.000
EO-88 11 Dec 21:54:17 21:57:36 34° 262° (W) 22:00:59 145.990 - 145.960
UNISAT 6 11 Dec 21:55:26 21:59:46 78° 102° (ESE) 22:04:10 437.425
DELFI C3 11 Dec 22:01:09 22:03:37 16° 267° (W) 22:06:06 145.870
PRISM 11 Dec 22:01:50 22:05:08 23° 96° (E) 22:08:24 437.425
LO-87 11 Dec 22:35:19 22:38:51 80° 77° (ENE) 22:42:25 145.935 - 145.965
AO-85 11 Dec 22:48:53 22:52:45 81° 299° (WNW) 22:56:51 145.980
SPROUT 11 Dec 22:49:27 22:52:24 18° 67° (ENE) 22:55:20 437.525
NANOSAT C BR1 11 Dec 23:03:35 23:04:59 11° 91° (E) 23:06:23 145.865
ESTCUBE 1 11 Dec 23:05:38 23:10:05 65° 259° (WSW) 23:14:36 437.505/2401.250
BEESAT 2 11 Dec 23:10:55 23:13:17 15° 315° (NW) 23:15:40 435.950
FALCONSAT 3 11 Dec 23:14:25 23:17:11 20° 158° (SSE) 23:19:57 435.103
EO-79 11 Dec 23:15:15 23:18:13 19° 94° (E) 23:21:10 145.935-145.965
VELOX 1 11 Dec 23:18:21 23:21:57 25° 68° (ENE) 23:25:33 145.980
AIST 2D 11 Dec 23:19:49 23:23:23 78° 102° (ESE) 23:26:55 435.315
TIGRISAT 11 Dec 23:32:22 23:33:34 11° 296° (WNW) 23:34:46 435.000
POLYITAN 1 11 Dec 23:36:37 23:40:26 32° 97° (E) 23:44:14 437.675
PRISM 11 Dec 23:36:55 23:40:19 25° 291° (WNW) 23:43:40 437.425
RS-15 11 Dec 23:49:02 00:00:49 65° 53° (NE) 00:11:55 29.354- 29.394
QB50P2 12 Dec 00:01:43 00:05:57 75° 101° (ESE) 00:10:10 145.880/145.840
DUCHIFAT 1 12 Dec 00:12:17 00:16:27 66° 102° (ESE) 00:20:37 145.980
UKube-1 12 Dec 00:17:17 00:19:32 14° 64° (ENE) 00:21:48 .
SPROUT 12 Dec 00:24:06 00:28:00 35° 262° (W) 00:31:55 437.525
DX 1 12 Dec 00:24:20 00:28:02 27° 69° (ENE) 00:31:44 434.975-435.025
SO-50 12 Dec 00:27:32 00:31:47 33° 51° (NE) 00:36:04 436.795
NANOSAT C BR1 12 Dec 00:36:53 00:40:59 53° 286° (WNW) 00:45:04 145.865
Oscar 19 12 Dec 00:39:21 00:42:53 18° 93° (E) 00:46:25 437.125/150
AO-91 12 Dec 00:49:06 00:50:56 14° 92° (E) 00:52:45 145.960
50 SAT 12 Dec 00:49:44 00:52:49 49° 74° (ENE) 00:55:55 437.505
EO-79 12 Dec 00:50:14 00:54:01 33° 289° (WNW) 00:57:47 145.935-145.965
FALCONSAT 3 12 Dec 00:52:20 00:55:51 44° 172° (S) 00:59:22 435.103
VELOX 1 12 Dec 00:54:23 00:58:14 29° 263° (W) 01:02:07 145.980
Gurwin Techsat 1B 12 Dec 00:55:11 00:58:54 19° 93° (E) 01:02:35 435.225
BUGSAT 1 12 Dec 01:05:47 01:09:47 60° 101° (E) 01:13:47 437.445
POLYITAN 1 12 Dec 01:12:55 01:15:58 20° 293° (WNW) 01:19:01 437.675
DUCHIFAT 1 12 Dec 01:50:49 01:51:31 10° 297° (WNW) 01:52:14 145.980
UKube-1 12 Dec 01:50:53 01:55:05 51° 259° (W) 01:59:19 .
DX 1 12 Dec 02:00:31 02:04:08 25° 264° (W) 02:07:46 434.975-435.025
AO-7 12 Dec 02:01:01 02:05:05 14° 90° (E) 02:09:08 .
RS-15 12 Dec 02:02:28 02:12:24 35° 255° (WSW) 02:21:56 29.354- 29.394
SO-50 12 Dec 02:08:10 02:12:08 27° 247° (WSW) 02:16:07 436.795
BEESAT 12 Dec 02:14:26 02:18:49 38° 70° (ENE) 02:23:13 436.000
Oscar 19 12 Dec 02:17:26 02:22:27 50° 288° (WNW) 02:27:28 437.125/150
MOZHAYETS 4 12 Dec 02:21:15 02:25:45 63° 74° (ENE) 02:30:15
AO-91 12 Dec 02:24:33 02:27:32 26° 289° (WNW) 02:30:24 145.960
FALCONSAT 3 12 Dec 02:31:10 02:34:41 44° 188° (S) 02:38:12 435.103
Gurwin Techsat 1B 12 Dec 02:33:57 02:39:05 50° 289° (WNW) 02:44:12 435.225
M-CUBED/EXP-1 PRIME 12 Dec 02:34:20 02:36:12 12° 94° (E) 02:38:00 437.505
YUBILEINY 12 Dec 02:38:31 02:46:35 42° 87° (E) 02:54:41 435.215
ITUPSAT 1 12 Dec 02:40:11 02:44:55 70° 74° (ENE) 02:49:39 437.325
BUGSAT 1 12 Dec 02:43:49 02:44:36 10° 296° (WNW) 02:45:23 437.445
ITAMSAT 1 12 Dec 03:22:48 03:27:33 35° 98° (E) 03:32:15 435.822/435.867
PCSat 12 Dec 03:23:59 03:28:06 22° 48° (NE) 03:32:13 145.827
CUBESAT XI-V 12 Dec 03:36:02 03:40:41 89° 282° (WNW) 03:45:24 437.345
AO-7 12 Dec 03:50:31 03:58:57 81° 107° (ESE) 04:07:20 .
STARS 12 Dec 03:53:03 03:53:36 10° 62° (ENE) 03:54:09 437.465
BEESAT 12 Dec 03:53:10 03:56:41 20° 266° (W) 04:00:13 436.000
MOZHAYETS 4 12 Dec 04:01:54 04:03:17 11° 270° (W) 04:04:41
M-CUBED/EXP-1 PRIME 12 Dec 04:06:27 04:10:57 60° 291° (WNW) 04:15:12 437.505
DOVE 4 12 Dec 04:08:39 04:11:41 18° 92° (E) 04:14:36 437.250
FALCONSAT 3 12 Dec 04:10:34 04:13:22 20° 202° (SSW) 04:16:09 435.103
ITUPSAT 1 12 Dec 04:21:56 04:23:11 11° 270° (W) 04:24:25 437.325
KKS-1 12 Dec 04:33:09 04:37:37 76° 74° (ENE) 04:42:05 437.445
YUBILEINY 12 Dec 04:35:11 04:43:19 41° 286° (WNW) 04:51:33 435.215
ITAMSAT 1 12 Dec 05:02:33 05:06:49 26° 294° (WNW) 05:11:04 435.822/435.867
PCSat 12 Dec 05:06:33 05:11:52 57° 247° (WSW) 05:17:09 145.827
XW-2F 12 Dec 05:11:38 05:13:01 12° 91° (E) 05:14:25 145.980 - 146.000
BEESAT 3 12 Dec 05:17:29 05:21:07 35° 53° (NE) 05:24:42 437.485
XW-2C 12 Dec 05:22:51 05:25:32 18° 94° (E) 05:28:12 145.795 - 145.815
STARS 12 Dec 05:24:54 05:29:18 75° 258° (WSW) 05:33:41 437.465
JUGNU 12 Dec 05:31:01 05:31:33 10° 173° (S) 05:32:07 437.505
AO-7 12 Dec 05:44:39 05:50:47 23° 306° (NW) 05:56:56 .
HO-68 12 Dec 05:44:43 05:48:35 15° 90° (E) 05:52:26 435.675
DOVE 4 12 Dec 05:45:21 05:49:34 37° 289° (WNW) 05:53:33 437.250
BEESAT 2 12 Dec 05:50:15 05:53:33 24° 49° (NE) 05:56:47 435.950
FO-29 12 Dec 05:51:47 05:55:37 15° 54° (NE) 05:59:28 435.910
LilacSat-2 12 Dec 05:54:32 05:58:19 49° 99° (E) 06:02:04 437.200
STRAND 1 12 Dec 06:01:16 06:05:43 30° 68° (ENE) 06:10:09 437.568
CUTE-I 12 Dec 06:06:10 06:11:18 46° 99° (E) 06:16:22 437.470
XW-2D 12 Dec 06:12:58 06:16:50 83° 102° (ESE) 06:20:40 145.860 - 145.880
CUTE 1.7 + AOD 2 12 Dec 06:22:58 06:26:26 23° 95° (E) 06:29:52 437.475
XW-2B 12 Dec 06:28:46 06:32:36 64° 284° (WNW) 06:36:23 145.730 - 145.750
KAITUO 1B 12 Dec 06:29:02 06:32:51 90° 101° (E) 06:36:37 145.475/437.950
NUDT-PHONESAT 12 Dec 06:30:40 06:34:27 89° 130° (SE) 06:38:11 437.300
CUBEBUG 2 12 Dec 06:40:12 06:43:28 21° 95° (E) 06:46:47 437.445
XW-2F 12 Dec 06:43:40 06:47:19 43° 287° (WNW) 06:50:56 145.980 - 146.000
UWE-3 12 Dec 06:46:58 06:49:15 14° 92° (E) 06:51:34 435.000/436.395/437.385
BEESAT 3 12 Dec 06:55:44 06:58:21 17° 250° (WSW) 07:00:56 437.485
XW-2C 12 Dec 06:56:22 06:59:42 28° 289° (WNW) 07:03:02 145.795 - 145.815
JUGNU 12 Dec 07:18:05 07:19:38 11° 184° (S) 07:21:11 437.505
ZACube-1 12 Dec 07:18:15 07:21:03 17° 93° (E) 07:23:53 437.345
AO-85 12 Dec 07:20:06 07:24:52 60° 56° (ENE) 07:29:57 145.980
NO-84 12 Dec 07:26:56 07:29:57 89° 329° (NNW) 07:33:13 435.350 FM
BEESAT 2 12 Dec 07:27:45 07:31:15 29° 247° (WSW) 07:34:42 435.950
HO-68 12 Dec 07:29:54 07:37:07 87° 284° (WNW) 07:44:16 435.675
LilacSat-2 12 Dec 07:30:45 07:32:07 12° 295° (WNW) 07:33:28 437.200
FO-29 12 Dec 07:31:39 07:39:12 70° 72° (ENE) 07:47:02 435.910
STRAND 1 12 Dec 07:40:21 07:44:49 30° 264° (W) 07:49:17 437.568
SEEDS 12 Dec 07:40:49 07:45:04 72° 285° (WNW) 07:49:17 437.485
Oscar 11 12 Dec 07:43:03 07:45:59 18° 93° (E) 07:48:55 .
CUTE-I 12 Dec 07:47:00 07:51:00 22° 295° (WNW) 07:54:58 437.470
XW-2A 12 Dec 07:50:46 07:54:10 64° 101° (E) 07:57:34 145.665 - 145.685
AO-73 12 Dec 07:53:04 07:57:05 35° 98° (E) 08:01:08 145.935
CUTE 1.7 + AOD 2 12 Dec 07:58:33 08:02:12 27° 290° (WNW) 08:05:49 437.475
AAUSAT CUBESAT 2 12 Dec 08:08:40 08:12:51 82° 283° (WNW) 08:16:59 437.432
CUBEBUG 2 12 Dec 08:16:23 08:20:04 30° 289° (WNW) 08:23:50 437.445
UWE-3 12 Dec 08:21:47 08:25:53 46° 286° (WNW) 08:30:06 435.000/436.395/437.385
O/OREOS (USA 219) 12 Dec 08:47:34 08:52:07 70° 109° (ESE) 08:56:41 437.305
TIGRISAT 12 Dec 08:50:26 08:54:35 47° 73° (ENE) 08:58:41 435.000
PRISM 12 Dec 08:50:30 08:52:55 15° 65° (ENE) 08:55:21 437.425
Max Valier Satellite 12 Dec 08:50:55 08:51:55 11° 91° (E) 08:52:56 145.860
UNISAT 6 12 Dec 08:52:48 08:57:03 56° 74° (ENE) 09:01:14 437.425
ZACube-1 12 Dec 08:53:24 08:57:27 40° 287° (WNW) 09:01:34 437.345
AO-85 12 Dec 09:01:49 09:04:55 17° 250° (WSW) 09:08:07 145.980
NO-84 12 Dec 09:06:08 09:07:43 13° 336° (NNW) 09:09:22 435.350 FM
Oscar 11 12 Dec 09:18:12 09:22:14 37° 288° (WNW) 09:26:15 .
FO-29 12 Dec 09:18:51 09:24:43 24° 270° (W) 09:30:47 435.910
HO-68 12 Dec 09:19:39 09:23:49 17° 305° (NW) 09:27:57 435.675
EO-88 12 Dec 09:24:09 09:26:52 19° 95° (E) 09:29:34 145.990 - 145.960
AO-73 12 Dec 09:29:57 09:33:03 19° 292° (WNW) 09:36:11 145.935
DELFI C3 12 Dec 09:37:10 09:41:07 69° 100° (E) 09:45:01 145.870
SRMSAT 12 Dec 09:47:58 09:49:54 12° 181° (S) 09:51:50 437.500
AIST 2D 12 Dec 09:53:01 09:55:43 21° 70° (ENE) 09:58:27 435.315
EO-79 12 Dec 10:07:37 10:09:26 13° 64° (ENE) 10:11:14 145.935-145.965
Max Valier Satellite 12 Dec 10:22:23 10:25:56 43° 286° (WNW) 10:29:29 145.860
PRISM 12 Dec 10:23:51 10:27:48 42° 261° (W) 10:31:47 437.425
POLYITAN 1 12 Dec 10:28:16 10:31:27 21° 68° (ENE) 10:34:37 437.675
TIGRISAT 12 Dec 10:29:21 10:31:29 13° 268° (W) 10:33:37 435.000
O/OREOS (USA 219) 12 Dec 10:30:01 10:32:01 13° 306° (NW) 10:34:02 437.305
UNISAT 6 12 Dec 10:32:40 10:34:04 11° 269° (W) 10:35:26 437.425
QB50P2 12 Dec 10:52:45 10:56:45 45° 73° (ENE) 11:00:45 145.880/145.840
EO-88 12 Dec 10:57:27 11:00:26 24° 289° (WNW) 11:03:23 145.990 - 145.960
ESTCUBE 1 12 Dec 10:59:31 11:03:27 28° 96° (E) 11:07:22 437.505/2401.250
DUCHIFAT 1 12 Dec 11:02:33 11:06:25 39° 72° (ENE) 11:10:18 145.980
ISS 12 Dec 11:06:04 11:07:04 11° 128° (SE) 11:08:04 437.550
AIST 2D 12 Dec 11:26:13 11:28:47 19° 266° (W) 11:31:23 435.315
NANOSAT C BR1 12 Dec 11:27:01 11:31:13 89° 282° (WNW) 11:35:24 145.865
LO-87 12 Dec 11:36:14 11:39:46 66° 283° (WNW) 11:43:16 145.935 - 145.965
EO-79 12 Dec 11:40:36 11:44:42 53° 260° (W) 11:48:48 145.935-145.965
AO-91 12 Dec 11:44:01 11:47:11 17° 67° (ENE) 11:50:10 145.960
BUGSAT 1 12 Dec 11:54:08 11:57:48 34° 72° (ENE) 12:01:27 437.445
Oscar 19 12 Dec 11:54:54 11:58:58 24° 66° (ENE) 12:03:03 437.125/150
POLYITAN 1 12 Dec 12:03:22 12:07:02 29° 263° (W) 12:10:42 437.675
nSIGHT-1 12 Dec 12:07:45 12:10:57 72° 140° (SE) 12:14:10 .
SPROUT 12 Dec 12:10:24 12:14:23 38° 99° (E) 12:18:20 437.525
Gurwin Techsat 1B 12 Dec 12:14:49 12:19:16 28° 67° (ENE) 12:23:43 435.225
QB50P2 12 Dec 12:30:37 12:32:45 14° 268° (W) 12:34:51 145.880/145.840
ESTCUBE 1 12 Dec 12:36:22 12:40:07 26° 292° (WNW) 12:43:51 437.505/2401.250
DUCHIFAT 1 12 Dec 12:39:43 12:42:13 15° 267° (W) 12:44:43 145.980
ISS 12 Dec 12:39:51 12:43:07 70° 322° (NW) 12:46:24 437.550
VELOX 1 12 Dec 12:44:43 12:49:05 56° 101° (E) 12:53:23 145.980
YUBILEINY 12 Dec 12:51:02 12:56:55 19° 64° (ENE) 13:02:44 435.215
AO-7 12 Dec 12:58:31 13:04:22 22° 53° (NE) 13:10:14 .
M-CUBED/EXP-1 PRIME 12 Dec 13:18:07 13:20:21 14° 57° (ENE) 13:22:37 437.505
AO-91 12 Dec 13:18:19 13:23:18 52° 260° (W) 13:27:51 145.960
BUGSAT 1 12 Dec 13:30:34 13:33:14 17° 266° (W) 13:35:52 437.445
Oscar 19 12 Dec 13:33:17 13:38:02 38° 262° (W) 13:42:51 437.125/150
50 SAT 12 Dec 13:38:47 13:41:50 46° 100° (E) 13:44:52 437.505
UKube-1 12 Dec 13:39:13 13:42:54 27° 97° (E) 13:46:32 .
nSIGHT-1 12 Dec 13:45:11 13:47:27 18° 337° (NNW) 13:49:45 .
SPROUT 12 Dec 13:47:11 13:49:56 17° 294° (WNW) 13:52:40 437.525
DX 1 12 Dec 13:48:50 13:53:09 59° 101° (ESE) 13:57:24 434.975-435.025
Gurwin Techsat 1B 12 Dec 13:54:12 13:59:02 35° 263° (W) 14:03:54 435.225
NO-84 12 Dec 13:59:55 14:03:30 36° 38° (NE) 14:07:18 435.350 FM
RS-15 12 Dec 14:09:32 14:20:58 48° 109° (ESE) 14:32:21 29.354- 29.394
ISS 12 Dec 14:18:08 14:20:06 15° 341° (NNW) 14:22:03 437.550
MOZHAYETS 4 12 Dec 14:18:33 14:21:25 16° 92° (E) 14:24:18
VELOX 1 12 Dec 14:22:53 14:25:00 13° 296° (WNW) 14:27:07 145.980
ITAMSAT 1 12 Dec 14:39:21 14:44:21 49° 71° (ENE) 14:49:22 435.822/435.867
ITUPSAT 1 12 Dec 14:42:42 14:46:08 19° 94° (E) 14:49:32 437.325
SO-50 12 Dec 14:43:06 14:44:57 12° 108° (ESE) 14:46:49 436.795
YUBILEINY 12 Dec 14:46:00 14:54:53 86° 266° (W) 15:03:39 435.215
AO-7 12 Dec 14:47:48 14:56:06 86° 252° (WSW) 15:04:30 .
M-CUBED/EXP-1 PRIME 12 Dec 14:49:57 14:54:06 61° 255° (WSW) 14:58:33 437.505
DOVE 4 12 Dec 15:11:56 15:15:44 20° 66° (ENE) 15:19:28 437.250
UKube-1 12 Dec 15:15:17 15:18:47 24° 292° (WNW) 15:22:15 .
DX 1 12 Dec 15:26:58 15:28:47 12° 297° (WNW) 15:30:37 434.975-435.025
CUBESAT XI-V 12 Dec 15:34:16 15:38:08 25° 95° (E) 15:41:58 437.345
NO-84 12 Dec 15:37:16 15:40:44 28° 232° (SW) 15:44:20 435.350 FM
BEESAT 12 Dec 15:52:47 15:57:32 76° 285° (WNW) 16:02:17 436.000
MOZHAYETS 4 12 Dec 15:54:22 15:58:46 46° 287° (WNW) 16:03:11
HO-68 12 Dec 16:15:24 16:17:20 11° 51° (NE) 16:19:15 435.675
ITUPSAT 1 12 Dec 16:19:37 16:24:05 41° 289° (WNW) 16:28:32 437.325
SO-50 12 Dec 16:20:26 16:24:50 63° 304° (NW) 16:29:18 436.795
ITAMSAT 1 12 Dec 16:20:26 16:24:03 19° 267° (W) 16:27:40 435.822/435.867
RS-15 12 Dec 16:21:19 16:33:18 55° 310° (NW) 16:45:15 29.354- 29.394
KKS-1 12 Dec 16:26:36 16:29:12 15° 93° (E) 16:31:48 437.445
LilacSat-2 12 Dec 16:35:38 16:38:28 20° 69° (ENE) 16:41:20 437.200
AO-7 12 Dec 16:45:25 16:49:54 15° 270° (W) 16:54:26 .
YUBILEINY 12 Dec 16:45:37 16:50:15 16° 283° (WNW) 16:54:54 435.215
DOVE 4 12 Dec 16:47:52 16:53:00 50° 261° (W) 16:58:04 437.250
XW-2D 12 Dec 16:52:49 16:56:09 31° 72° (ENE) 16:59:32 145.860 - 145.880
nSIGHT-1 12 Dec 17:00:29 17:02:06 13° 17° (NNE) 17:03:45 .
KAITUO 1B 12 Dec 17:07:29 17:10:48 31° 72° (ENE) 17:14:10 145.475/437.950
NUDT-PHONESAT 12 Dec 17:08:16 17:11:30 30° 72° (ENE) 17:14:46 437.300
XW-2B 12 Dec 17:08:16 17:11:53 46° 74° (ENE) 17:15:33 145.730 - 145.750
CUBESAT XI-V 12 Dec 17:11:19 17:15:28 31° 290° (WNW) 17:19:36 437.345
CUTE 1.7 + AOD 2 12 Dec 17:15:17 17:17:40 15° 66° (ENE) 17:20:05 437.475
STARS 12 Dec 17:16:04 17:19:20 21° 95° (E) 17:22:36 437.465
O/OREOS (USA 219) 12 Dec 17:21:59 17:23:25 11° 53° (NE) 17:24:51 437.305
